Wind_Speed
45 46 47 47 47 45 43 43 42 41 40 40 40 39 39 38 36 34 32 31 30 29 28 27 25 25 24 24 23 23 23 24 24 25 26 27 28 28
42 45 46 46 48 47 46 44 44 43 42 42 41 42 42 40 39 37 35 34 33 30 29 28 27 26 25 25 24 25 26 26 27 27 27 28 28 28
39 41 44 46 46 47 46 47 46 45 44 43 42 42 43 42 41 39 38 36 34 33 31 29 29 28 27 26 26 26 27 27 28 28 29 28 28 28
34 38 41 44 44 46 47 47 47 46 45 44 43 43 42 41 41 41 39 37 36 34 32 32 31 30 29 27 27 27 27 27 28 28 28 28 28 27
29 33 37 40 42 44 45 46 46 45 43 43 42 41 41 40 40 40 40 39 37 36 34 33 32 30 28 27 27 27 27 27 27 27 27 27 27 26
23 26 30 34 38 40 42 43 43 44 44 43 42 41 41 42 42 41 40 38 37 35 34 34 32 30 28 27 26 26 26 27 27 27 26 26 25 24
21 23 25 28 30 33 36 38 39 40 41 42 42 42 41 41 41 42 41 39 38 36 36 34 32 30 28 27 27 26 26 27 27 27 25 25 24 22
20 21 22 25 26 28 30 33 34 35 37 38 39 39 40 41 40 39 40 40 38 36 35 33 31 29 28 28 27 26 27 27 26 25 24 23 21 19
19 19 20 22 23 25 26 28 29 30 33 35 36 36 36 38 38 39 40 39 37 35 33 32 30 29 29 28 27 27 27 26 25 24 22 20 18 16
18 18 19 19 21 22 23 25 26 28 29 30 31 32 32 33 34 35 36 35 34 33 32 31 30 29 28 28 27 26 25 24 22 22 21 18 15 14
15 16 18 18 18 20 21 23 23 24 26 26 26 27 28 29 30 30 31 31 32 31 30 29 28 28 27 26 25 24 22 21 21 20 19 16 14 13
12 13 15 16 17 17 19 20 21 22 22 24 25 25 26 27 28 28 28 29 29 29 27 27 27 27 25 25 24 23 21 21 20 19 17 15 13 12
8 10 11 13 14 15 16 17 18 20 21 22 24 24 25 27 27 27 27 27 27 27 26 25 25 24 24 24 23 22 21 19 18 16 15 13 12 11
3 6 8 10 11 13 14 15 16 18 19 20 21 22 23 25 27 27 27 26 26 25 24 23 22 22 23 22 21 20 18 17 16 15 14 13 12 11
5 5 6 7 8 10 12 13 14 15 17 18 19 19 20 21 23 25 26 25 25 24 23 22 22 21 21 20 19 18 17 16 15 14 13 12 12 11
8 7 6 5 6 7 8 10 11 13 14 15 16 17 18 19 20 21 22 23 23 24 23 21 20 19 19 18 17 16 15 14 14 13 13 12 12 12
10 8 6 5 5 6 7 8 8 11 12 12 13 14 15 17 18 18 19 19 19 19 19 19 18 17 16 16 15 15 14 14 14 13 13 13 12 12
11 9 7 6 6 6 7 8 8 9 9 11 11 12 13 15 16 16 16 17 19 18 17 16 16 14 14 14 14 13 14 14 13 13 13 13 13 12
10 9 7 6 6 7 7 8 8 9 9 10 11 12 13 14 14 15 16 16 17 16 15 14 13 13 13 13 13 14 14 14 14 13 13 12 12 12
9 8 7 7 7 7 7 7 8 8 8 8 9 11 12 13 14 14 15 15 15 15 15 14 13 13 13 13 13 14 14 14 13 13 12 12 12 12
8 7 6 6 6 6 6 6 7 7 7 8 9 10 11 12 12 13 13 13 13 14 14 14 13 13 13 13 13 13 13 13 13 12 12 12 12 13
5 4 4 4 4 4 5 5 5 6 7 8 9 9 10 11 11 12 12 12 12 13 14 14 14 13 13 13 13 13 13 12 12 12 12 12 13 14
4 2 1 1 2 3 4 5 6 6 7 7 8 9 10 10 10 11 11 11 12 12 13 13 13 13 13 13 13 13 12 12 12 12 12 13 14 15
Wind_Direction
238 237 237 237 236 235 235 234 234 234 233 234 235 235 236 237 239 240 241 244 246 247 249 250 251 255 259 262 265 270 274 277 279 282 286 288 289 289
239 238 237 236 235 234 234 234 234 235 234 234 235 235 235 235 236 238 241 243 244 244 246 247 250 255 259 262 266 270 274 277 280 283 286 287 288 289
240 239 237 237 235 234 233 233 234 234 234 234 235 235 234 234 235 236 238 239 239 241 243 245 250 255 259 263 268 272 275 278 282 283 285 287 288 289
241 239 238 237 236 235 234 233 233 235 234 233 234 233 233 234 233 234 236 236 237 239 240 244 250 254 258 263 268 272 275 278 281 284 285 286 287 289
245 240 238 237 236 236 236 235 234 233 232 230 231 233 232 231 231 231 232 233 234 236 238 242 247 252 258 263 268 273 275 278 281 285 286 286 287 289
248 243 240 238 236 236 236 235 234 232 231 230 229 231 231 230 228 229 230 230 233 234 236 240 245 251 259 264 269 273 276 279 282 284 285 286 287 287
252 248 243 239 237 236 235 235 234 231 231 230 229 227 228 228 227 228 230 230 232 234 236 240 245 252 257 263 268 272 277 280 281 283 284 284 285 285
254 251 247 242 239 236 234 232 233 232 232 229 229 228 226 224 224 226 228 228 229 232 235 239 245 251 256 261 267 271 276 279 280 281 282 282 280 280
256 250 246 243 239 235 232 230 229 230 229 228 225 225 225 225 224 224 225 225 225 229 234 239 244 249 255 260 265 270 272 275 275 276 278 276 276 275
256 248 243 240 235 232 230 230 229 228 226 225 224 224 223 222 221 221 222 223 226 232 236 239 244 250 255 259 263 266 268 269 269 270 271 268 266 266
253 245 239 235 231 227 226 226 225 224 225 225 222 220 220 220 222 223 225 226 229 233 238 241 245 249 254 258 260 262 264 265 266 266 262 258 259 258
248 236 230 228 227 224 222 222 221 220 220 219 220 220 220 220 222 224 227 229 230 234 238 242 246 248 251 253 255 257 259 261 260 258 255 251 250 246
238 225 221 221 219 218 216 216 215 215 216 216 217 218 218 220 221 222 225 229 231 234 237 240 243 246 247 250 252 252 254 254 251 249 247 241 236 237
191 199 204 206 207 209 210 211 212 213 212 214 216 218 218 219 220 224 225 227 228 230 231 235 239 243 246 246 246 246 246 243 243 242 235 228 229 234
103 142 168 184 194 199 205 207 209 209 209 211 211 212 214 216 218 220 219 221 225 228 231 236 238 239 239 239 241 242 239 235 233 228 223 223 228 234
85 107 127 153 172 180 190 198 201 202 202 203 202 206 208 210 211 211 213 217 222 227 230 231 233 234 234 236 235 231 228 226 223 220 221 225 230 235
74 90 98 117 139 159 169 175 181 186 190 194 197 202 204 205 205 207 210 214 217 219 220 222 225 228 228 225 222 222 222 219 217 219 223 227 232 240
65 76 95 110 121 137 151 162 168 172 175 180 187 193 195 197 199 203 205 206 206 208 211 215 216 218 217 215 216 217 215 215 216 219 225 230 237 245
59 71 85 98 115 127 136 144 155 166 171 173 178 185 187 188 193 198 198 199 200 204 207 209 211 212 213 213 212 211 212 214 217 222 229 235 243 252
54 66 83 96 105 119 128 131 140 146 154 162 170 177 183 188 192 194 195 197 200 203 205 206 209 210 209 208 208 209 211 214 220 227 235 242 251 260
45 61 81 98 108 116 126 130 138 147 153 156 159 165 171 178 184 188 190 194 199 201 203 205 206 206 204 205 208 211 214 219 225 232 241 249 258 266
31 52 76 98 116 127 138 147 150 154 159 163 164 167 171 176 182 186 187 190 194 198 200 202 203 204 206 208 211 216 220 225 231 239 248 257 265 272
346 1 58 115 139 152 157 160 164 166 167 169 172 176 179 182 186 189 190 191 192 193 196 199 202 204 208 213 217 221 226 232 240 250 259 267 273 279
Height
5770 5774 5778 5783 5788 5793 5798 5803 5808 5812 5817 5822 5826 5830 5834 5838 5842 5845 5849 5852 5854 5857 5859 5861 5863 5865 5866 5867 5867 5868 5868 5868 5868 5867 5866 5865 5864 5863
5759 5763 5767 5772 5777 5782 5787 5792 5797 5802 5807 5812 5816 5820 5825 5829 5833 5837 5841 5844 5847 5850 5852 5855 5857 5858 5860 5861 5861 5862 5862 5862 5862 5861 5860 5859 5858 5856
5749 5753 5756 5761 5766 5771 5776 5781 5786 5791 5797 5802 5806 5811 5815 5820 5825 5829 5833 5836 5839 5843 5845 5848 5850 5851 5853 5854 5855 5856 5856 5856 5855 5855 5854 5852 5851 5850
5740 5743 5746 5751 5755 5760 5765 5770 5775 5781 5786 5792 5797 5801 5806 5811 5815 5820 5824 5828 5832 5835 5838 5840 5843 5844 5846 5847 5848 5849 5849 5849 5849 5848 5847 5846 5845 5844
5731 5734 5737 5741 5745 5749 5754 5759 5765 5770 5776 5781 5787 5791 5796 5801 5806 5811 5815 5820 5823 5827 5830 5833 5835 5837 5839 5840 5841 5842 5842 5842 5842 5841 5841 5840 5839 5837
5724 5726 5728 5731 5735 5739 5744 5749 5754 5760 5765 5771 5777 5782 5787 5792 5797 5802 5807 5811 5815 5819 5822 5825 5827 5830 5832 5833 5835 5835 5836 5835 5835 5835 5834 5833 5833 5832
5718 5719 5721 5723 5726 5730 5735 5740 5744 5750 5755 5761 5767 5772 5778 5782 5788 5793 5798 5802 5806 5811 5814 5817 5820 5823 5825 5826 5828 5828 5828 5828 5828 5828 5827 5827 5826 5826
5712 5713 5714 5717 5719 5723 5727 5731 5736 5741 5746 5752 5758 5763 5768 5774 5779 5784 5789 5794 5799 5803 5806 5810 5813 5816 5818 5820 5820 5821 5822 5822 5822 5822 5821 5821 5821 5820
5705 5707 5708 5710 5713 5716 5720 5724 5729 5733 5739 5744 5750 5755 5760 5765 5770 5775 5780 5785 5790 5794 5798 5802 5805 5808 5811 5812 5813 5814 5815 5815 5816 5816 5816 5816 5816 5816
5699 5700 5702 5705 5707 5711 5715 5718 5722 5727 5732 5738 5743 5747 5752 5757 5762 5767 5772 5777 5782 5787 5791 5795 5798 5801 5803 5805 5806 5807 5808 5809 5810 5810 5811 5811 5811 5812
5692 5694 5697 5700 5703 5706 5710 5713 5717 5721 5725 5730 5735 5740 5745 5751 5756 5761 5765 5770 5775 5779 5784 5787 5790 5793 5796 5798 5799 5801 5802 5803 5804 5805 5805 5806 5807 5807
5687 5689 5692 5695 5698 5702 5705 5709 5713 5717 5721 5726 5730 5735 5740 5744 5749 5754 5759 5764 5768 5773 5777 5781 5784 5787 5789 5791 5793 5795 5796 5798 5799 5799 5800 5801 5802 5803
5684 5686 5689 5692 5696 5699 5702 5706 5709 5713 5717 5722 5726 5730 5735 5740 5745 5749 5754 5758 5763 5767 5771 5774 5777 5780 5783 5785 5787 5789 5791 5792 5793 5795 5796 5797 5798 5800
5683 5686 5688 5691 5694 5697 5701 5704 5707 5711 5714 5719 5723 5727 5731 5735 5740 5744 5748 5752 5757 5761 5765 5768 5771 5774 5777 5779 5782 5784 5785 5787 5789 5790 5792 5793 5795 5796
5686 5688 5690 5692 5695 5697 5700 5703 5706 5709 5712 5716 5720 5724 5728 5731 5735 5739 5743 5748 5752 5755 5759 5763 5766 5769 5771 5774 5777 5779 5781 5782 5784 5786 5788 5790 5791 5793
5691 5692 5693 5694 5696 5698 5700 5702 5705 5708 5711 5714 5717 5721 5725 5728 5732 5736 5740 5744 5748 5751 5754 5758 5761 5764 5767 5769 5772 5774 5776 5779 5781 5783 5785 5786 5788 5789
5697 5697 5697 5698 5699 5700 5702 5703 5705 5708 5710 5713 5716 5719 5723 5726 5729 5733 5737 5741 5744 5748 5751 5754 5757 5760 5763 5765 5768 5770 5773 5775 5778 5780 5781 5783 5785 5786
5702 5701 5701 5701 5701 5702 5703 5705 5706 5708 5711 5713 5716 5718 5721 5724 5728 5731 5734 5738 5741 5745 5748 5751 5754 5757 5759 5762 5765 5767 5770 5772 5774 5776 5778 5780 5781 5782
5707 5706 5705 5704 5704 5705 5706 5707 5708 5709 5711 5713 5716 5718 5721 5724 5727 5730 5733 5736 5739 5743 5746 5749 5752 5754 5757 5759 5762 5764 5767 5769 5771 5773 5775 5776 5777 5778
5711 5709 5708 5708 5708 5708 5709 5709 5710 5711 5713 5714 5716 5718 5721 5724 5726 5729 5732 5735 5738 5741 5744 5747 5750 5752 5755 5757 5759 5762 5764 5766 5768 5770 5771 5772 5773 5774
5715 5713 5712 5711 5711 5711 5711 5712 5712 5713 5714 5716 5717 5719 5721 5724 5726 5729 5732 5734 5737 5739 5742 5745 5747 5750 5752 5755 5757 5759 5761 5763 5765 5766 5768 5769 5769 5769
5718 5716 5715 5714 5713 5713 5713 5713 5714 5715 5716 5717 5718 5720 5722 5724 5726 5729 5731 5733 5736 5738 5740 5743 5745 5748 5750 5753 5755 5757 5759 5760 5761 5763 5764 5765 5765 5765
5719 5718 5717 5716 5715 5715 5715 5715 5715 5716 5716 5717 5719 5720 5722 5724 5726 5728 5730 5732 5734 5737 5739 5741 5744 5746 5748 5750 5752 5754 5755 5757 5758 5759 5759 5760 5760 5760